Wind_Speed
11 11 10 10 10 10 10 9 9 9 8 8 7 6 6 6 6 5 5 5 5 6 7 7 8 9 8 8 8 8 8 8 8 9 8 8 8 7 6 7 7 7
13 12 11 10 10 9 10 9 9 9 8 8 7 6 6 6 6 6 6 6 6 6 7 8 9 9 9 9 8 8 7 8 7 7 8 8 7 7 7 7 7 7
13 13 12 11 11 10 10 10 9 9 9 8 8 7 7 7 6 7 7 7 6 7 8 9 9 10 10 9 9 8 7 7 7 6 7 7 7 7 7 7 7 6
13 14 13 12 12 11 11 10 10 9 9 9 8 8 8 7 6 7 7 8 8 8 8 8 9 9 9 9 9 9 8 8 8 7 7 7 7 8 8 8 7 6
13 13 14 13 12 12 11 10 10 9 9 9 8 8 7 6 6 6 7 7 7 8 8 8 8 9 9 9 9 9 9 9 9 9 8 8 8 8 9 9 8 7
12 13 13 12 11 11 11 10 10 10 9 9 9 8 8 7 7 6 5 5 6 7 7 7 8 8 8 9 9 9 9 9 8 8 9 9 9 9 10 10 9 9
13 13 13 12 11 11 11 10 10 10 9 9 9 8 8 8 7 6 6 5 5 5 6 7 7 7 7 7 7 7 8 8 8 9 9 9 9 9 10 10 9 10
14 14 13 13 13 13 12 12 11 10 10 9 9 9 9 9 8 8 7 6 6 6 6 6 7 6 6 6 6 7 7 7 8 8 8 8 8 9 10 10 10 10
14 14 14 13 13 13 13 13 12 12 11 11 10 10 10 9 9 10 9 8 8 7 7 6 6 6 5 5 6 6 6 6 6 7 7 7 7 7 8 9 9 9
15 15 14 14 14 14 13 13 13 13 12 12 12 11 10 10 10 10 10 9 9 8 8 7 7 6 6 5 6 6 6 6 6 6 6 6 6 6 6 6 7 7
16 16 15 14 14 14 14 13 13 13 12 12 12 12 11 10 11 11 10 10 10 9 9 9 8 8 7 7 7 7 7 7 7 7 7 7 6 5 5 5 5 6
16 16 15 15 14 14 14 14 14 13 12 12 12 11 11 11 12 11 10 10 10 10 10 10 10 9 9 8 8 8 8 7 7 7 7 7 6 6 5 5 5 5
17 16 16 15 15 14 14 14 14 13 12 12 12 12 11 11 12 12 11 10 10 11 11 10 10 10 10 10 9 9 9 8 9 8 7 7 7 7 6 5 5 6
18 18 17 16 15 15 14 15 14 14 13 13 13 12 11 11 11 12 12 11 11 12 12 11 11 11 11 11 11 10 10 10 10 9 8 8 8 8 9 7 5 6
19 19 19 19 18 16 15 14 14 14 15 15 15 14 13 12 12 12 12 11 12 12 12 12 12 12 11 12 12 11 11 11 11 10 9 10 9 9 10 9 7 7
21 20 20 20 20 19 17 15 16 16 16 16 15 15 14 14 13 13 12 12 11 11 12 13 13 12 12 13 12 12 11 11 11 10 10 10 10 10 10 10 9 9
24 23 21 20 21 20 19 18 18 19 19 18 16 15 15 15 14 14 13 13 12 13 13 14 13 12 13 14 13 12 11 11 11 10 10 9 9 10 10 10 10 10
27 26 25 25 24 22 21 21 21 23 23 22 21 19 17 16 16 15 14 14 14 15 16 15 14 14 15 15 14 12 11 11 12 11 11 10 10 10 11 11 12 11
29 27 26 24 22 21 22 22 22 24 24 23 23 22 19 19 18 17 16 16 16 18 20 18 17 16 16 16 15 14 13 13 13 13 13 12 12 12 14 14 14 14
31 30 28 25 22 21 22 24 23 23 24 24 25 25 25 25 22 19 19 18 18 21 23 22 20 20 19 17 15 15 15 14 15 15 15 14 14 16 17 17 16 16
31 30 29 27 24 24 25 26 26 25 25 26 27 28 30 28 23 21 21 22 23 25 25 24 23 22 21 20 19 18 17 16 17 17 16 17 19 20 20 19 18 18
32 32 31 29 27 27 28 28 28 28 28 28 29 30 32 28 23 22 24 25 26 26 25 24 24 23 22 22 21 20 20 19 20 20 19 20 22 23 22 21 20 21
32 34 34 31 30 31 30 30 30 30 30 30 31 33 33 29 25 25 27 28 28 28 26 25 24 23 23 22 22 21 21 21 21 21 22 23 24 24 23 23 23 23
29 31 33 33 33 32 29 28 29 30 30 30 32 35 34 32 29 28 30 31 31 29 28 27 26 24 23 22 22 23 22 22 22 22 23 24 24 24 24 24 24 25
27 27 29 31 32 30 26 25 27 29 30 30 32 33 33 32 31 30 32 33 32 31 29 28 27 26 25 24 24 24 24 24 24 23 24 24 24 24 24 24 24 24
25 25 25 26 27 27 26 26 26 28 28 28 29 29 29 28 28 28 30 32 33 34 33 31 29 28 27 27 26 26 25 24 24 24 24 25 24 24 24 24 24 23
Wind_Direction
182 181 180 180 182 180 176 178 179 177 177 182 189 195 190 182 187 190 194 195 192 191 187 183 185 187 186 185 180 175 174 176 175 175 180 181 183 185 188 195 199 204
186 185 184 185 187 183 178 183 187 182 184 189 189 197 203 197 197 204 207 204 199 199 197 194 194 196 199 200 198 191 189 193 189 182 184 187 190 193 197 203 207 213
189 187 188 187 188 188 181 183 188 185 190 197 194 197 204 205 208 216 219 215 210 206 202 203 204 203 204 207 212 210 206 210 210 204 201 200 202 206 210 214 215 219
191 190 191 189 189 194 190 187 190 189 192 197 197 200 202 206 212 217 221 223 222 214 207 209 210 210 212 213 218 222 222 223 226 227 223 218 219 222 224 229 229 230
197 195 196 194 191 195 194 192 196 197 197 196 197 203 203 203 205 209 217 223 223 220 215 215 216 217 218 219 223 228 230 232 233 236 238 236 236 236 238 241 242 243
203 201 201 200 197 197 198 197 198 200 202 199 198 202 202 204 205 204 209 212 214 218 220 220 221 223 222 223 227 231 235 241 241 240 242 244 245 246 249 252 252 251
206 206 205 205 201 202 203 203 203 203 204 204 205 206 206 208 210 208 209 209 204 208 217 220 220 221 225 227 230 233 237 243 247 247 248 250 252 253 257 261 263 261
210 209 207 206 205 207 209 209 208 207 205 206 207 210 214 212 214 216 214 211 210 211 215 217 216 217 219 222 229 236 237 240 245 250 252 254 255 257 260 264 266 266
215 215 211 208 207 207 210 210 211 211 208 208 208 210 216 215 215 218 218 217 218 219 220 219 219 220 219 222 230 234 236 239 242 246 252 254 256 262 265 265 265 266
215 217 216 213 210 208 210 211 212 213 211 212 214 214 216 216 215 216 219 225 226 226 228 227 226 229 231 231 236 239 237 240 241 239 244 250 253 261 267 267 269 271
213 216 217 216 213 213 214 215 215 215 214 218 221 222 223 224 224 221 220 225 230 232 233 230 228 231 233 233 238 245 243 243 244 238 236 239 242 249 257 265 271 275
215 216 219 219 218 216 216 219 220 216 216 223 227 227 227 229 231 229 225 226 230 232 232 232 231 231 233 234 235 241 244 247 250 247 243 242 240 239 241 250 263 270
222 221 221 221 221 220 218 220 224 220 218 224 230 231 231 232 233 232 229 229 234 238 234 232 234 234 236 238 238 240 242 246 249 248 251 257 257 257 251 245 257 273
228 227 226 227 226 225 224 227 230 227 222 224 229 236 238 232 232 236 233 228 232 240 241 238 239 238 239 242 245 247 246 247 249 249 252 256 259 267 267 257 254 268
231 230 229 230 231 229 229 233 238 236 231 229 228 234 240 237 235 239 239 233 234 240 245 244 242 241 244 244 244 246 248 249 251 254 257 256 252 257 265 265 259 262
233 232 231 232 234 234 232 232 238 242 241 237 231 230 236 240 242 244 246 247 246 243 242 243 243 243 244 245 242 242 246 249 251 254 260 262 256 251 255 262 262 261
229 227 227 230 234 236 235 231 235 239 240 241 242 241 238 237 240 244 248 253 254 251 247 247 247 244 242 244 245 243 245 248 250 253 257 261 260 255 254 258 261 265
236 229 222 220 222 227 230 228 229 234 236 238 242 244 243 241 241 242 243 246 251 255 256 255 254 250 247 250 251 248 248 251 253 254 255 256 258 259 260 258 257 256
244 243 238 232 227 229 233 233 233 237 240 241 242 241 240 240 241 240 241 244 249 254 255 254 253 252 251 255 257 255 252 252 254 256 257 258 259 260 259 256 253 252
245 247 251 249 242 240 241 241 241 242 244 247 246 242 237 233 229 228 233 236 239 246 249 249 250 253 255 255 256 257 255 253 254 255 257 260 260 258 257 256 257 258
248 249 252 252 249 249 249 247 247 246 246 248 248 245 243 239 230 226 231 233 233 239 244 245 246 249 253 254 255 257 257 255 255 255 256 257 256 256 257 259 262 263
253 253 253 253 253 254 253 252 253 252 253 253 251 249 248 246 240 236 238 238 239 241 245 248 249 249 251 253 255 257 257 257 255 255 255 255 256 258 261 263 266 267
255 253 252 253 255 253 250 251 251 252 254 255 254 252 251 248 246 246 246 245 244 244 245 247 250 253 253 253 254 255 257 257 257 255 255 256 258 262 264 266 268 269
253 250 250 253 255 254 250 249 249 249 251 252 253 255 255 253 248 248 250 250 249 249 249 247 246 249 252 253 255 256 256 256 256 256 256 259 261 263 266 267 268 269
253 251 250 253 258 260 259 256 252 251 250 249 249 253 258 260 255 250 250 252 252 252 252 250 247 246 248 250 253 255 256 256 257 258 259 260 261 264 266 269 270 271
253 252 251 253 257 260 261 260 256 253 251 250 253 256 260 264 263 259 257 258 257 254 252 250 247 245 246 247 249 252 254 255 256 258 260 261 263 265 267 268 271 272
Height
3222 3223 3224 3225 3226 3227 3229 3230 3231 3232 3233 3234 3235 3236 3237 3238 3239 3240 3240 3242 3243 3244 3245 3246 3247 3247 3248 3249 3250 3251 3252 3252 3253 3254 3254 3255 3256 3256 3257 3257 3258 3258
3222 3222 3223 3225 3226 3227 3228 3229 3230 3231 3232 3234 3235 3236 3237 3237 3239 3240 3241 3242 3243 3244 3245 3246 3247 3248 3248 3249 3250 3251 3252 3252 3252 3253 3254 3255 3255 3256 3256 3257 3257 3258
3221 3222 3223 3225 3226 3227 3228 3229 3230 3231 3232 3233 3234 3235 3236 3237 3238 3239 3240 3241 3242 3243 3244 3245 3246 3247 3248 3249 3250 3250 3251 3251 3252 3253 3253 3254 3255 3255 3256 3256 3257 3257
3221 3222 3223 3224 3225 3226 3227 3228 3229 3230 3232 3233 3234 3235 3236 3236 3238 3239 3240 3241 3241 3242 3243 3244 3245 3246 3247 3248 3249 3250 3250 3251 3252 3252 3253 3254 3254 3255 3255 3255 3256 3257
3220 3221 3222 3223 3224 3225 3226 3227 3229 3230 3231 3232 3233 3234 3235 3236 3237 3238 3239 3240 3241 3241 3242 3243 3244 3245 3246 3247 3248 3249 3250 3250 3251 3252 3252 3253 3254 3254 3254 3255 3255 3256
3220 3221 3221 3222 3224 3225 3226 3227 3228 3229 3231 3232 3233 3234 3235 3235 3236 3237 3238 3239 3240 3241 3242 3242 3243 3244 3245 3246 3247 3248 3249 3249 3250 3251 3251 3252 3253 3253 3254 3254 3255 3255
3219 3220 3221 3222 3223 3224 3225 3226 3228 3229 3230 3231 3232 3233 3234 3235 3236 3236 3237 3238 3239 3240 3241 3242 3242 3243 3244 3245 3246 3247 3248 3249 3249 3250 3250 3251 3252 3252 3253 3253 3254 3255
3218 3219 3220 3221 3222 3223 3224 3226 3227 3228 3229 3230 3231 3232 3233 3234 3235 3236 3237 3238 3238 3239 3240 3241 3242 3243 3244 3245 3246 3246 3247 3248 3248 3249 3249 3250 3251 3251 3252 3252 3253 3254
3216 3217 3219 3220 3221 3222 3223 3225 3226 3227 3228 3229 3230 3231 3232 3233 3234 3235 3236 3237 3238 3239 3240 3240 3241 3242 3243 3244 3245 3245 3246 3247 3247 3248 3249 3249 3250 3250 3251 3251 3252 3253
3215 3216 3217 3219 3220 3221 3222 3224 3225 3226 3228 3228 3229 3230 3231 3232 3233 3234 3235 3236 3237 3238 3239 3240 3241 3242 3243 3243 3244 3245 3245 3246 3246 3247 3247 3248 3249 3249 3250 3250 3251 3252
3213 3215 3216 3218 3219 3220 3222 3223 3224 3226 3227 3228 3229 3230 3231 3232 3233 3234 3235 3236 3237 3238 3239 3240 3240 3241 3242 3242 3243 3244 3244 3245 3245 3246 3246 3246 3247 3248 3249 3249 3250 3250
3213 3214 3215 3217 3218 3220 3221 3222 3223 3225 3226 3227 3228 3229 3230 3232 3232 3233 3234 3235 3236 3237 3238 3239 3239 3240 3241 3241 3242 3243 3244 3244 3245 3245 3246 3246 3246 3247 3247 3248 3248 3249
3212 3214 3215 3217 3218 3219 3221 3222 3222 3224 3225 3226 3228 3229 3230 3231 3232 3233 3234 3235 3235 3236 3237 3238 3238 3239 3240 3240 3241 3242 3243 3243 3244 3245 3245 3246 3246 3246 3246 3247 3247 3248
3211 3213 3215 3216 3218 3219 3220 3221 3222 3223 3225 3226 3227 3228 3229 3230 3231 3232 3233 3234 3234 3235 3236 3237 3237 3238 3239 3239 3240 3241 3242 3243 3243 3243 3244 3244 3245 3246 3246 3246 3245 3246
3210 3212 3214 3215 3217 3218 3220 3221 3222 3222 3224 3225 3226 3227 3228 3229 3230 3231 3232 3233 3233 3234 3235 3236 3236 3237 3237 3238 3239 3239 3240 3241 3242 3242 3243 3243 3243 3244 3245 3245 3244 3244
3209 3211 3213 3214 3216 3217 3219 3220 3221 3221 3222 3223 3224 3226 3227 3228 3228 3229 3230 3231 3232 3233 3233 3234 3234 3235 3236 3237 3237 3237 3238 3239 3240 3241 3241 3241 3242 3242 3243 3244 3244 3243
3206 3208 3211 3213 3214 3215 3217 3218 3219 3220 3220 3221 3222 3224 3225 3226 3227 3228 3229 3229 3230 3231 3231 3232 3233 3234 3235 3236 3236 3236 3237 3238 3238 3239 3239 3240 3240 3241 3241 3242 3242 3242
3204 3206 3207 3208 3209 3212 3213 3215 3215 3216 3217 3218 3219 3221 3223 3224 3225 3226 3227 3228 3229 3229 3229 3230 3231 3232 3233 3234 3234 3235 3235 3236 3237 3237 3238 3238 3239 3239 3240 3240 3240 3240
3202 3206 3207 3208 3210 3213 3212 3212 3213 3214 3215 3216 3217 3218 3220 3222 3223 3224 3225 3227 3227 3226 3225 3227 3229 3230 3231 3232 3233 3233 3234 3234 3235 3236 3236 3237 3237 3237 3237 3237 3237 3238
3198 3203 3207 3208 3211 3212 3211 3210 3212 3213 3214 3214 3215 3216 3217 3216 3218 3220 3222 3223 3223 3222 3222 3224 3226 3227 3229 3230 3230 3231 3232 3233 3234 3234 3235 3235 3235 3234 3234 3234 3235 3235
3196 3200 3202 3204 3207 3208 3208 3208 3209 3211 3212 3212 3213 3214 3213 3214 3217 3219 3220 3220 3219 3218 3219 3221 3223 3225 3226 3227 3228 3229 3230 3231 3231 3232 3233 3232 3231 3230 3231 3232 3233 3233
3196 3197 3197 3199 3202 3204 3204 3205 3205 3206 3208 3209 3210 3209 3210 3214 3218 3218 3217 3217 3217 3217 3219 3220 3221 3222 3224 3225 3226 3227 3227 3228 3229 3229 3229 3229 3227 3228 3230 3231 3231 3231
3193 3193 3192 3194 3196 3197 3199 3201 3202 3202 3203 3204 3205 3203 3205 3211 3214 3214 3214 3214 3215 3216 3217 3218 3219 3220 3221 3222 3223 3224 3225 3225 3226 3226 3226 3225 3225 3226 3228 3228 3229 3229
3187 3189 3188 3188 3189 3190 3194 3197 3198 3198 3198 3200 3199 3198 3201 3205 3208 3209 3209 3209 3211 3212 3214 3215 3216 3217 3218 3219 3220 3221 3221 3222 3222 3223 3223 3223 3223 3224 3225 3226 3226 3226
3181 3184 3185 3185 3186 3187 3191 3194 3194 3194 3195 3195 3195 3195 3197 3200 3201 3203 3204 3204 3206 3209 3210 3211 3212 3213 3214 3216 3217 3217 3218 3219 3219 3220 3220 3220 3221 3222 3223 3223 3223 3223
3176 3178 3181 3183 3184 3185 3187 3188 3189 3189 3190 3191 3191 3192 3193 3195 3197 3198 3199 3201 3202 3204 3205 3206 3208 3209 3210 3212 3213 3214 3215 3216 3216 3216 3217 3217 3218 3219 3220 3220 3221 3221